User: anonymous   Login
Location: Unspecified
(0.0000°N, 0.0000°E)
Time: 01:50:43
(UTC+00:00)
Language:

STSS DEMO 2 (USA 209) - Orbit

View from above orbital plane
View from above orbital plane
View from above satellite
View from above satellite

Ground track
Ground track

The orbit data is extracted from the following two-line orbital elements,

1 35938U 09052B   18145.90288889 0.00000000  00000-0  00000-0 0    08
2 35938  57.9883 177.1775 0010500 307.1484  52.8516 12.79362168    00
Epoch (UTC): 25 May 2018 21:40:09
Eccentricity: 0.0010500
inclination: 57.9883°
perigee height: 1336 km
apogee height: 1352 km
right ascension of ascending node: 177.1775°
argument of perigee: 307.1484°
revolutions per day: 12.79362168
mean anomaly at epoch: 52.8516°
orbit number at epoch: 0

The dashed part of the orbit path shows where the satellite is in the earth's shadow,  

DLR